PROBA-1 1 26958U 01049B 26264.96834237 .00001495 00000+0 98938-4 0 9995 2 26958 97.9633 276.9179 0055075 154.0414 206.3594 15.07822853358209 CUTE-1 (CO-55) 1 27844U 03031E 26264.27513155 .00000165 00000+0 90365-4 0 9999 2 27844 98.6774 271.6428 0008385 266.4617 93.5603 14.24383809205357 CUBESAT XI-IV (CO-57) 1 27848U 03031J 26264.87429158 .00000145 00000+0 82758-4 0 9993 2 27848 98.6806 271.8692 0008343 286.3279 73.6981 14.23662411205133 APRIZESAT 4 1 35684U 09041D 26264.74819919 .00000331 00000+0 46195-4 0 9993 2 35684 98.1339 341.9583 0043347 10.1444 350.0634 14.83995588925680 APRIZESAT 3 1 35686U 09041F 26264.72627986 .00001565 00000+0 13828-3 0 9990 2 35686 98.2194 62.6718 0062816 107.9854 252.8226 14.96471523930810 PROBA-2 1 36037U 09059B 26264.80021891 .00000097 00000+0 33185-4 0 9990 2 36037 98.2480 86.8426 0012971 347.8969 12.1915 14.54895620895579 APRIZESAT 5 1 37792U 11044E 26264.81480772 .00000650 00000+0 88958-4 0 9997 2 37792 98.2485 200.6128 0053176 52.3891 308.2130 14.81217902813098 APRIZESAT 6 1 37793U 11044F 26264.75331951 .00000334 00000+0 54512-4 0 9993 2 37793 98.2283 177.1892 0043898 135.5613 285.0784 14.77027639811408 PROBA-V 1 39159U 13021A 26264.90058824 .00000037 00000+0 34190-4 0 9990 2 39159 98.3716 238.7884 0003633 193.9492 166.1588 14.23613974694874 APRIZESAT 7 1 39416U 13066A 26264.81720459 .00000871 00000+0 91242-4 0 9992 2 39416 97.7812 216.7070 0034193 250.3250 109.4278 14.91758974695634 APRIZESAT 8 1 39425U 13066K 26264.85840778 .00000687 00000+0 80048-4 0 9990 2 39425 97.8307 211.0224 0045047 329.5486 30.3115 14.87805143694045 BUGSAT-1 (TITA) 1 40014U 14033E 26264.92831701 .00003034 00000+0 15869-3 0 9992 2 40014 98.0422 3.1935 0026754 207.6402 152.3409 15.16418506670499 SAUDISAT 4 1 40016U 14033G 26264.89358220 .00000421 00000+0 62003-4 0 9990 2 40016 97.7729 47.7730 0045955 117.8991 242.6886 14.79646781660377 APRIZESAT 9 1 40018U 14033J 26264.65265803 .00000365 00000+0 61208-4 0 9993 2 40018 97.9196 35.5722 0064707 249.7879 109.6364 14.74310787657773 APRIZESAT 10 1 40019U 14033K 26264.85853428 .00000218 00000+0 42375-4 0 9993 2 40019 97.9772 29.7287 0077864 325.9671 33.6555 14.70969642656469 TECHDEMOSAT-1 (TDS-1) 1 40076U 14037H 26264.59068667 .00004769 00000+0 26330-3 0 9991 2 40076 98.3883 266.4914 0004688 313.4807 46.6031 15.14492005662816 TECHNOSAT 1 42829U 17042E 26264.90847463 .00002623 00000+0 18620-3 0 9992 2 42829 97.4410 58.9942 0018630 121.6150 238.6898 15.05435584501250 FLYING LAPTOP 1 42831U 17042G 26264.95565427 .00001651 00000+0 13137-3 0 9995 2 42831 97.5013 57.0392 0017343 148.5534 211.6732 15.01615582500976 HAWK-A 1 43765U 18099H 26264.72532112 .00003884 00000+0 15305-3 0 9994 2 43765 97.3815 315.7189 0032454 306.6837 53.1420 15.25712839427815 HAWK-B 1 43794U 18099AN 26264.86544773 .00003578 00000+0 14981-3 0 9996 2 43794 97.3867 315.0631 0030207 326.1727 33.7582 15.23793613427751 HAWK-C 1 43799U 18099AT 26264.86853436 .00004969 00000+0 17331-3 0 9997 2 43799 97.3791 317.2648 0037670 303.9838 55.7825 15.29415594428683 SALSAT 1 46495U 20068K 26264.58607289 .00005095 00000+0 17290-3 0 9999 2 46495 97.8891 273.6304 0008409 334.0399 26.0417 15.30993408330108 HAWK-2C 1 47502U 21006CT 26264.61957247 .00004087 00000+0 12000-3 0 9992 2 47502 97.2199 307.0274 0005959 200.1613 159.9397 15.35688226314299 HAWK-2A 1 47505U 21006CW 26264.68490889 .00004400 00000+0 12886-3 0 9997 2 47505 97.2237 307.8281 0005407 203.7013 156.3983 15.35731625314308 HAWK-2B 1 47508U 21006CZ 26264.93290310 .00004561 00000+0 13274-3 0 9995 2 47508 97.2108 306.2543 0005944 200.1463 159.9547 15.35900420314348 HAWK-3B 1 48931U 21059BE 26264.53312440 .00047920 00000+0 28122-3 0 9993 2 48931 97.6547 110.9410 0002701 339.3173 20.7982 15.78160106293007 HAWK-3C 1 48948U 21059BX 26264.53279489 .00047419 00000+0 27824-3 0 9997 2 48948 97.6650 116.7810 0002956 340.2575 19.8575 15.78164763293007 HAWK-3A 1 48957U 21059CG 26264.53268581 .00047951 00000+0 28130-3 0 9990 2 48957 97.6600 113.9122 0003030 343.0570 17.0594 15.78166707293008 HAWK-5C 1 52754U 22057Y 26264.89063245 .00014349 00000+0 21950-3 0 9996 2 52754 97.6679 71.0931 0004603 81.2557 278.9217 15.54490307241350 HAWK-5B 1 52756U 22057AA 26264.89051650 .00014514 00000+0 22201-3 0 9999 2 52756 97.6699 69.4595 0005294 75.2190 284.9650 15.54484865241354 HAWK-5A 1 52757U 22057AB 26264.76155214 .00015746 00000+0 24064-3 0 9994 2 52757 97.6691 70.1475 0005241 78.6243 281.5599 15.54490512241330 HAWK-6B 1 55324U 23011A 26264.03223690 .00003815 00000+0 16381-3 0 9999 2 55324 40.4981 152.7197 0002888 317.4655 42.5931 15.23654156202462 HAWK-6C 1 55326U 23011C 26264.09711404 .00002363 00000+0 10459-3 0 9999 2 55326 40.4963 149.1697 0003984 318.8855 41.1654 15.23648409202487 HAWK-6A 1 55327U 23011D 26264.09716345 .00003150 00000+0 13667-3 0 9998 2 55327 40.4978 150.8022 0003662 309.1309 50.9175 15.23651180202481 HAWK-7A 1 56191U 23054P 26263.66866011 .00003602 00000+0 13361-3 0 9996 2 56191 97.2540 148.5557 0004591 69.5793 290.5940 15.28217771191601 HAWK-7B 1 56193U 23054R 26264.65077296 .00004897 00000+0 18073-3 0 9999 2 56193 97.2569 147.8090 0003782 77.3165 282.8498 15.28218254191754 HAWK-7C 1 56200U 23054Y 26264.58516264 .00001613 00000+0 61279-4 0 9993 2 56200 97.2541 148.4841 0003974 68.3054 291.8609 15.28213632191742